Location: Scandolara Ripa d�Oglio
(45.2167°N, 10.1500°E)
Time: 19:04:18
(UTC+00:00)

Daily predictions for brighter satellites

Satellite Brightness Start Highest point End
(mag) Time Altitude Azimuth Time Altitude Azimuth Time Altitude Azimuth
IRS-1C Rocket 4.1 17:37:23 10° SSE 17:42:38 74° ENE 17:47:55 10° N
COSMO-SKYMED 1 2.8 17:39:57 10° N 17:44:18 76° WNW 17:48:37 10° SSW
Cosmos 1633 Rocket 4.2 17:41:05 10° SSW 17:45:22 49° WNW 17:49:41 10° N
FALCON 9 DEB 4.1 17:43:13 10° NW 17:46:06 30° NNE 17:48:58 10° E
SeaSat 1 3.7 17:43:13 10° ENE 17:46:55 21° ESE 17:50:36 10° SSE
Cosmos 2242 Rocket 3.7 17:43:42 10° N 17:48:07 55° ENE 17:52:28 10° SSE
MOS 1 Rocket 4.3 17:44:27 10° N 17:49:34 61° WNW 17:54:52 10° SSW
Gbstr 26 Del rocket 4.1 17:46:19 10° WNW 17:50:28 39° N 17:55:29 10° ENE
Cosmos 2333 Rocket 2.4 17:47:25 10° S 17:52:52 49° ESE 17:58:23 10° NE
Abrixas rocket 1.7 17:52:01 10° WNW 17:54:28 58° NNE 17:56:40 12° E
Meteor 2-4 Rocket 3.8 17:53:13 10° N 17:59:09 83° E 18:05:05 10° SSE
Cosmos 2322 Rocket 3.6 17:53:53 10° SW 17:59:09 41° NW 18:04:29 10° NNE
Helios 1A Rocket 3.2 17:55:27 10° SE 17:59:17 44° ENE 18:03:08 10° N
SAR-Lupe-1 4.4 17:56:16 10° NNE 17:59:43 43° E 18:03:09 10° S
Lacrosse 4 Rocket 1.6 17:55:54 10° SSW 18:00:12 58° ESE 18:04:37 10° NE
GP-B 3.2 17:56:53 10° SSE 18:01:11 52° E 18:05:31 10° N
DELTA 2 R/B (1) 4.4 17:56:09 10° SW 18:01:11 36° SSE 18:05:50 12° E
Nadezhda 3 Rocket 4.5 17:55:26 10° NNW 18:01:46 70° W 18:08:05 10° S
ARGOS 3.2 17:58:03 10° SSE 18:03:25 67° ENE 18:08:49 10° N
Cosmos 192 4.3 18:01:50 10° S 18:06:40 65° ESE 18:11:33 10° NNE
Cosmos 1869 Rocket 3.8 18:03:34 10° SSE 18:07:42 44° E 18:11:55 10° NNE
CZ-4 R/B 1.7 18:05:01 10° S 18:08:52 68° WSW 18:12:49 10° NNW
Cosmos 2219 Rocket 2.2 18:03:53 10° S 18:09:21 59° ESE 18:14:52 10° NNE
CZ-4B R/B 3.2 18:07:58 10° N 18:10:47 32° WNW 18:13:36 10° SW
FALCON 9 DEB 3.4 18:11:50 10° NW 18:14:53 45° NNE 18:16:47 20° E
ERS-2 2.0 18:11:46 10° NNE 18:15:25 73° ESE 18:19:03 10° S
CZ-2C R/B 2.7 18:10:31 10° NNE 18:15:52 57° E 18:21:04 10° S
Cosmos 1238 Rocket 3.6 18:12:28 10° SSE 18:15:56 27° E 18:18:57 10° NE
Cosmos 1689 Rocket 1.9 18:14:06 10° NNE 18:17:00 88° ESE 18:19:52 10° SSW
SL-08 RB Rocket 3.7 18:13:53 10° SSE 18:18:21 64° ENE 18:22:55 10° N
Cosmos 1378 3.7 18:15:55 10° N 18:19:22 35° ENE 18:22:45 10° SE
USA 305 4.0 18:16:05 10° NW 18:19:58 33° NNE 18:22:40 17° ENE
NOSS 3-2 (A) 3.6 18:16:44 10° S 18:21:54 42° ESE 18:27:46 10° NE
CREW DRAGON DEMO-1 DEB 2.5 18:19:41 10° SW 18:22:28 69° SSE 18:23:59 24° ENE
HJ-1C 3.4 18:19:40 10° S 18:22:59 79° W 18:26:17 10° NNW
COSMOS 2428 2.7 18:18:28 10° SSW 18:24:04 64° ESE 18:29:43 10° NNE
FALCON 9 DEB 3.4 18:21:16 10° NW 18:24:22 45° NNE 18:25:51 25° E
Cosmos 1733 Rocket 4.1 18:21:44 10° SE 18:25:08 23° E 18:28:34 10° NE
SL-8 Rocket 3.9 18:26:48 10° S 18:33:01 86° E 18:39:15 10° N
CENTAUR R/B 3.0 18:28:30 10° S 18:33:39 35° ESE 18:39:38 10° NE
USA 307 3.9 18:29:51 10° NW 18:33:48 35° NNE 18:35:52 22° ENE
USA 306 3.8 18:31:06 10° NW 18:35:06 36° NNE 18:37:06 23° ENE
NOSS 0 Rocket 4.2 18:29:46 10° S 18:35:28 42° ESE 18:41:13 10° NE
ATLAS CENTAUR R/B 3.8 18:33:23 10° W 18:35:55 17° NW 18:38:29 10° N
Cosmos 1066 Rocket 4.2 18:32:06 10° N 18:37:52 68° ENE 18:43:41 10° SSE
Cosmos 1743 3.4 18:36:12 10° SSE 18:39:41 33° E 18:43:12 10° NNE
Cosmos 1666 3.7 18:37:55 10° SSW 18:41:31 47° WNW 18:45:09 10° N
CSL-04 Rocket 4.0 18:38:53 10° S 18:44:24 73° WSW 18:49:55 10° NNW
USA 308 3.7 18:40:39 10° NW 18:44:41 38° NNE 18:46:15 28° ENE
Cosmos 2322 4.3 18:39:25 10° SW 18:45:05 61° WNW 18:50:46 10° NNE
Okean-O 4.3 18:43:42 10° SSW 18:47:45 35° W 18:51:49 10° NNW
Meteor 1-23 Rocket 4.2 18:42:41 10° N 18:48:16 64° ENE 18:53:54 10° SSE
BREEZE-M DEB (TANK) 2.5 18:47:29 10° SW 18:49:49 69° SSE 18:50:06 61° ESE
Cosmos 2366 rocket 4.1 18:44:56 10° S 18:51:16 86° W 18:57:40 10° N
H-2A R/B 3.9 18:46:53 10° SSW 18:51:49 34° W 18:56:46 10° NNW
ASTEX 1 3.3 18:47:26 10° NNE 18:52:16 59° E 18:57:05 10° S
SJ-6B 2.8 18:52:44 30° SE 18:54:35 61° ENE 18:58:33 10° N
Cosmos 1674 Rocket 4.3 18:51:38 10° N 18:55:15 32° ENE 18:55:15 32° ENE
Ariane Rocket 3.1 18:55:34 27° SE 18:58:08 54° ENE 19:03:06 10° N
Cosmos 990 Rocket 4.3 18:53:18 10° N 18:58:18 45° ENE 18:59:41 37° ESE
USA 186 2.0 18:59:36 45° NNW 18:59:36 45° NNW 19:01:34 10° NNW
Cosmos 2221 Rocket 3.5 18:55:13 10° N 18:59:40 71° E 19:02:11 25° SSE
Cosmos 1763 Rocket 3.9 18:56:34 10° S 19:01:28 39° ESE 19:06:22 10° NE
OBJECT-B 1.2 19:02:09 48° NNE 19:02:09 48° NNE 19:04:45 10° N
NOSS 3-2 (C) 3.4 18:58:17 10° SSW 19:03:35 49° ESE 19:08:11 17° NE
SL-08 R/B 4.5 18:57:53 10° S 19:04:19 75° E 19:10:47 10° NNE
Meteor 1-11 Rocket 4.1 18:59:42 10° SSW 19:05:20 65° WNW 19:10:54 10° N
Cosmos 2360 Rocket 4.5 19:05:32 10° W 19:09:58 23° NW 19:14:26 10° N
Cosmos 1378 Rocket 4.3 19:05:53 10° N 19:09:21 36° NE 19:09:21 36° NE
Cosmos 468 Rocket 4.1 19:07:58 10° S 19:13:06 52° ESE 19:18:14 10° NNE
FALCON 9 DEB 3.4 19:11:02 10° WNW 19:13:45 57° W 19:13:45 57° W
Cosmos 1943 Rocket 3.7 19:11:13 10° N 19:15:26 21° NE 19:15:26 21° NE
Cosmos 1821 Rocket 3.9 19:09:21 10° S 19:15:30 66° E 19:21:35 10° NNE
Cosmos 2237 Rocket 2.1 19:10:51 10° SSW 19:16:28 64° ESE 19:22:08 10° NNE
SJ 16-02 1.6 19:12:59 10° NNW 19:17:22 66° WSW 19:19:19 32° S
Cosmos 1544 3.1 19:13:49 10° SSW 19:17:26 76° W 19:21:08 10° N
Cosmos 1727 Rocket 4.1 19:11:28 10° N 19:17:39 77° W 19:23:51 10° S
DMSP B5D2-2 4.4 19:13:00 10° N 19:18:11 65° WNW 19:23:20 10° SSW
MOS 1 4.2 19:15:42 27° SSE 19:18:58 82° ENE 19:24:41 10° NNW
Cosmos 2278 Rocket 2.1 19:14:00 10° NNW 19:19:43 86° WSW 19:22:11 35° SSE
Cosmos 1536 4.2 19:16:10 10° SSW 19:19:55 39° WNW 19:23:41 10° N
USA 81 3.9 19:16:03 10° S 19:21:17 75° E 19:26:33 10° N
FALCON 9 DEB 4.1 19:18:57 10° WNW 19:21:22 41° W 19:21:22 41° W
Cosmos 1000 Rocket 4.4 19:16:05 10° N 19:22:23 70° E 19:25:17 34° SSE
SL-4 R/B 3.5 19:19:52 10° W 19:22:34 21° SW 19:22:57 21° SW
SPOT 3 Rocket 3.8 19:24:24 48° ENE 19:24:24 48° ENE 19:29:17 10° N
SeaSat 1 3.0 19:19:52 10° NNE 19:24:45 59° WNW 19:29:35 10° SW
Cosmos 2239 Rocket 4.4 19:18:59 10° S 19:25:12 65° E 19:31:24 10° NNE
Cosmos 1934 Rocket 4.2 19:30:06 45° ENE 19:30:06 45° ENE 19:35:15 10° NNE
Resurs 01 Rocket 2.6 19:31:41 35° NNE 19:31:41 35° NNE 19:34:33 10° N
SME Rocket 4.0 19:25:33 10° NNE 19:32:48 74° WNW 19:37:34 10° SSW
Meteor 2-20 Rocket 4.4 19:27:39 10° N 19:33:48 85° W 19:37:10 29° S
USA 234 3.1 19:33:09 41° ENE 19:35:30 67° SE 19:42:00 10° SW
Cosmos 2333 Rocket 4.0 19:32:25 10° WSW 19:37:23 30° NW 19:42:24 10° N
Gbstr 26 Del rocket 3.4 19:32:59 10° WNW 19:37:53 81° NNE 19:38:19 74° E
Lacrosse 4 Rocket 4.0 19:35:52 10° W 19:39:15 21° NW 19:42:41 10° N
Cosmos 1937 Rocket 3.6 19:35:18 10° NNW 19:39:49 57° NNE 19:39:49 57° NNE
Cosmos 2123 Rocket 3.9 19:34:42 10° N 19:40:54 61° ENE 19:41:02 61° E
USA 238 DEB 3.8 19:37:01 10° SW 19:43:34 73° NW 19:50:29 10° NE
USA 238 3.7 19:37:07 10° SW 19:43:40 74° NW 19:50:35 10° NE
Resurs 1-3 3.9 19:45:27 67° WNW 19:45:27 67° WNW 19:49:30 10° NNW
DELTA 2 R/B (1) 4.1 19:41:47 10° WSW 19:46:36 46° SSW 19:46:36 46° SSW
Cosmos 2219 Rocket 4.3 19:49:05 10° WSW 19:53:41 26° NW 19:58:21 10° N
USA 305 4.2 19:56:00 10° WNW 19:58:46 39° WNW 19:58:46 39° WNW
Cosmos 1980 4.2 19:55:46 10° SW 20:01:18 56° WNW 20:06:53 10° NNE
NOSS 3-2 (A) 4.5 20:07:17 10° WSW 20:12:44 42° NW 20:19:00 10° NNE
Cosmos 1898 Rocket 4.4 20:14:54 10° NNW 20:19:30 44° W 20:19:30 44° W
Cosmos 2369 Rocket 3.8 20:15:11 10° N 20:18:00 25° NNE 20:18:00 25° NNE
CENTAUR R/B 3.2 20:18:08 10° WSW 20:23:59 52° NW 20:31:00 10° NNE
Cosmos 1943 Rocket 3.8 20:54:11 10° NNW 20:56:57 30° NNW 20:56:57 30° NNW
Cosmos 2237 Rocket 4.2 20:56:25 10° WSW 21:01:00 24° NW 21:05:37 10° N
USA 234 4.4 21:20:31 37° WNW 21:20:31 37° WNW 21:24:37 10° W
